4XTAB LLHA-LLHZ

Flight info

Callsign 4XTAB
Flight time 0h 40m
Altitude 1967
Route GALM
Aircraft C172/L-SD/C

Departure

Time 2026-04-29 18:47
Airport Uri Michaeli Haifa International Airport (LLHA)

Arrival

Time 2026-04-29 19:27
Airport Herzliya Airport (LLHZ)
Time Latitude Longitude Altitude Speed Heading
2026-04-29 18:26 32.81136 35.04229 29 ft 0 kts 341°
2026-04-29 18:36 32.81152 35.04232 29 ft 5 kts 38°
2026-04-29 18:36 32.81155 35.04234 29 ft 0 kts 44°
2026-04-29 18:37 32.81156 35.04236 29 ft 1 kts 46°
2026-04-29 18:37 32.81170 35.04268 29 ft 6 kts 82°
2026-04-29 18:38 32.81165 35.04285 29 ft 3 kts 144°
2026-04-29 18:38 32.81163 35.04287 29 ft 0 kts 158°
2026-04-29 18:38 32.81160 35.04288 29 ft 3 kts 149°
2026-04-29 18:38 32.81097 35.04336 29 ft 17 kts 160°
2026-04-29 18:39 32.80940 35.04404 29 ft 29 kts 161°
2026-04-29 18:39 32.80734 35.04493 29 ft 33 kts 161°
2026-04-29 18:39 32.80537 35.04572 29 ft 11 kts 157°
2026-04-29 18:39 32.80521 35.04594 29 ft 2 kts 51°
2026-04-29 18:40 32.80556 35.04579 29 ft 0 kts 338°
2026-04-29 18:40 32.80559 35.04578 29 ft 2 kts 332°
2026-04-29 18:40 32.80570 35.04571 29 ft 0 kts 336°
2026-04-29 18:45 32.80571 35.04570 29 ft 4 kts 334°
2026-04-29 18:46 32.80812 35.04466 29 ft 63 kts 340°
2026-04-29 18:46 32.81279 35.04302 190 ft 72 kts 347°
2026-04-29 18:46 32.81762 35.04213 397 ft 73 kts 350°
2026-04-29 18:46 32.82272 35.04075 573 ft 79 kts 340°
2026-04-29 18:47 32.82728 35.03767 796 ft 76 kts 313°
2026-04-29 18:47 32.83089 35.03291 983 ft 79 kts 308°
2026-04-29 18:47 32.83393 35.02781 1192 ft 79 kts 310°
2026-04-29 18:47 32.83717 35.02266 1406 ft 77 kts 288°
2026-04-29 18:48 32.83957 35.01680 1576 ft 80 kts 303°
2026-04-29 18:48 32.84235 35.01147 1777 ft 77 kts 289°
2026-04-29 18:48 32.84417 35.00510 1847 ft 80 kts 281°
2026-04-29 18:48 32.84478 34.99873 1896 ft 83 kts 273°
2026-04-29 18:49 32.84487 34.99209 1979 ft 79 kts 261°
2026-04-29 18:49 32.84377 34.98550 1985 ft 85 kts 253°
2026-04-29 18:49 32.84198 34.97882 2020 ft 87 kts 252°
2026-04-29 18:49 32.84034 34.97216 2088 ft 84 kts 248°
2026-04-29 18:50 32.83807 34.96590 2126 ft 85 kts 238°
2026-04-29 18:50 32.83463 34.96032 2106 ft 85 kts 226°
2026-04-29 18:50 32.83019 34.95571 2083 ft 85 kts 219°
2026-04-29 18:50 32.82530 34.95314 2054 ft 84 kts 184°
2026-04-29 18:51 32.81382 34.94994 1995 ft 85 kts 190°
2026-04-29 18:51 32.80806 34.94850 1979 ft 84 kts 191°
2026-04-29 18:51 32.80232 34.94773 1954 ft 84 kts 171°
2026-04-29 18:52 32.79649 34.94790 1906 ft 87 kts 178°
2026-04-29 18:52 32.79069 34.94777 1908 ft 84 kts 182°
2026-04-29 18:52 32.78481 34.94742 1875 ft 85 kts 178°
2026-04-29 18:52 32.77894 34.94746 1855 ft 85 kts 174°
2026-04-29 18:53 32.77314 34.94873 1828 ft 84 kts 161°
2026-04-29 18:53 32.76772 34.95112 1801 ft 85 kts 150°
2026-04-29 18:53 32.76260 34.95461 1781 ft 84 kts 149°
2026-04-29 18:53 32.75745 34.95819 1784 ft 84 kts 148°
2026-04-29 18:54 32.75252 34.96192 1792 ft 85 kts 146°
2026-04-29 18:54 32.74739 34.96537 1808 ft 83 kts 152°
2026-04-29 18:54 32.74213 34.96834 1809 ft 85 kts 157°
2026-04-29 18:54 32.73647 34.97018 1820 ft 84 kts 169°
2026-04-29 18:55 32.73060 34.97098 1829 ft 84 kts 175°
2026-04-29 18:55 32.72468 34.97104 1837 ft 85 kts 185°
2026-04-29 18:55 32.71885 34.96975 1855 ft 84 kts 191°
2026-04-29 18:55 32.71315 34.96831 1857 ft 85 kts 192°
2026-04-29 18:56 32.70736 34.96705 1874 ft 84 kts 185°
2026-04-29 18:56 32.70144 34.96666 1880 ft 85 kts 178°
2026-04-29 18:56 32.69557 34.96688 1893 ft 84 kts 181°
2026-04-29 18:56 32.68972 34.96603 1903 ft 84 kts 185°
2026-04-29 18:57 32.68385 34.96561 1910 ft 85 kts 180°
2026-04-29 18:57 32.67788 34.96519 1895 ft 87 kts 185°
2026-04-29 18:57 32.67177 34.96444 1889 ft 88 kts 183°
2026-04-29 18:57 32.66573 34.96425 1927 ft 83 kts 177°
2026-04-29 18:58 32.65987 34.96444 1914 ft 86 kts 179°
2026-04-29 18:58 32.65391 34.96438 1930 ft 85 kts 178°
2026-04-29 18:58 32.64791 34.96476 1944 ft 84 kts 174°
2026-04-29 18:58 32.64193 34.96440 1922 ft 87 kts 193°
2026-04-29 18:59 32.63592 34.96260 1898 ft 89 kts 193°
2026-04-29 18:59 32.62977 34.96115 1860 ft 93 kts 188°
2026-04-29 18:59 32.62359 34.95979 1884 ft 89 kts 193°
2026-04-29 18:59 32.61784 34.95746 1917 ft 84 kts 200°
2026-04-29 19:00 32.61211 34.95512 1913 ft 85 kts 197°
2026-04-29 19:00 32.60670 34.95278 1936 ft 84 kts 200°
2026-04-29 19:00 32.60110 34.95039 1932 ft 86 kts 196°
2026-04-29 19:00 32.59524 34.94830 1899 ft 90 kts 197°
2026-04-29 19:01 32.58932 34.94599 1894 ft 90 kts 197°
2026-04-29 19:01 32.58328 34.94392 1896 ft 88 kts 194°
2026-04-29 19:01 32.57742 34.94223 1914 ft 87 kts 191°
2026-04-29 19:01 32.57153 34.94071 1931 ft 85 kts 190°
2026-04-29 19:02 32.56564 34.93949 1928 ft 86 kts 187°
2026-04-29 19:02 32.56162 34.93837 1892 ft 90 kts 196°
2026-04-29 19:02 32.55352 34.93543 1864 ft 91 kts 193°
2026-04-29 19:02 32.54734 34.93431 1869 ft 89 kts 185°
2026-04-29 19:03 32.54095 34.93391 1833 ft 92 kts 180°
2026-04-29 19:03 32.53440 34.93368 1759 ft 97 kts 181°
2026-04-29 19:03 32.52779 34.93336 1748 ft 94 kts 181°
2026-04-29 19:03 32.52126 34.93304 1710 ft 95 kts 182°
2026-04-29 19:04 32.51466 34.93269 1670 ft 95 kts 183°
2026-04-29 19:04 32.50826 34.93156 1722 ft 86 kts 193°
2026-04-29 19:04 32.50249 34.92952 1737 ft 91 kts 195°
2026-04-29 19:04 32.49609 34.92765 1672 ft 99 kts 193°
2026-04-29 19:05 32.48940 34.92553 1701 ft 94 kts 196°
2026-04-29 19:05 32.48315 34.92339 1732 ft 93 kts 194°
2026-04-29 19:05 32.47697 34.92164 1763 ft 92 kts 191°
2026-04-29 19:05 32.47105 34.92003 1856 ft 82 kts 192°
2026-04-29 19:06 32.46542 34.91854 1777 ft 82 kts 192°
2026-04-29 19:06 32.45985 34.91695 1701 ft 82 kts 193°
2026-04-29 19:06 32.44867 34.91402 1705 ft 80 kts 190°
2026-04-29 19:07 32.44317 34.91275 1721 ft 82 kts 190°
2026-04-29 19:07 32.44129 34.91232 1738 ft 81 kts 189°
2026-04-29 19:07 32.43171 34.91020 1693 ft 93 kts 189°
2026-04-29 19:07 32.42508 34.90847 1633 ft 97 kts 189°
2026-04-29 19:08 32.41822 34.90751 1649 ft 92 kts 187°
2026-04-29 19:08 32.41239 34.90641 1806 ft 75 kts 187°
2026-04-29 19:08 32.40684 34.90529 1780 ft 82 kts 192°
2026-04-29 19:08 32.40149 34.90334 1822 ft 80 kts 200°
2026-04-29 19:09 32.39597 34.90065 1770 ft 88 kts 201°
2026-04-29 19:09 32.39053 34.89792 1825 ft 84 kts 207°
2026-04-29 19:09 32.38552 34.89458 1861 ft 82 kts 206°
2026-04-29 19:09 32.38046 34.89134 1820 ft 85 kts 208°
2026-04-29 19:10 32.37509 34.88831 1780 ft 85 kts 198°
2026-04-29 19:10 32.36964 34.88598 1831 ft 81 kts 197°
2026-04-29 19:10 32.36418 34.88413 1883 ft 82 kts 192°
2026-04-29 19:10 32.35828 34.88247 1884 ft 88 kts 193°
2026-04-29 19:11 32.35233 34.88062 1951 ft 86 kts 195°
2026-04-29 19:11 32.34660 34.87862 1976 ft 87 kts 194°
2026-04-29 19:11 32.34056 34.87693 1936 ft 91 kts 191°
2026-04-29 19:11 32.33446 34.87508 1915 ft 92 kts 194°
2026-04-29 19:12 32.32829 34.87308 1879 ft 94 kts 195°
2026-04-29 19:12 32.32175 34.87089 1811 ft 96 kts 195°
2026-04-29 19:12 32.31573 34.86877 1868 ft 87 kts 197°
2026-04-29 19:12 32.31378 34.86801 1870 ft 87 kts 198°
2026-04-29 19:13 32.30388 34.86472 1856 ft 88 kts 187°
2026-04-29 19:13 32.29770 34.86591 1798 ft 91 kts 154°
2026-04-29 19:13 32.29143 34.86857 1703 ft 96 kts 163°
2026-04-29 19:13 32.28520 34.86791 1723 ft 91 kts 192°
2026-04-29 19:14 32.27920 34.86628 1743 ft 87 kts 185°
2026-04-29 19:14 32.27319 34.86709 1718 ft 89 kts 158°
2026-04-29 19:14 32.26732 34.87015 1660 ft 94 kts 150°
2026-04-29 19:14 32.26181 34.87389 1755 ft 85 kts 146°
2026-04-29 19:15 32.25680 34.87818 1708 ft 93 kts 142°
2026-04-29 19:15 32.25115 34.88086 1698 ft 89 kts 163°
2026-04-29 19:15 32.24540 34.88234 1723 ft 83 kts 170°
2026-04-29 19:15 32.23976 34.88259 1731 ft 81 kts 177°
2026-04-29 19:16 32.23399 34.88294 1671 ft 86 kts 176°
2026-04-29 19:16 32.22837 34.88296 1655 ft 86 kts 177°
2026-04-29 19:16 32.22230 34.88283 1519 ft 89 kts 184°
2026-04-29 19:16 32.21638 34.88325 1378 ft 89 kts 172°
2026-04-29 19:17 32.21033 34.88390 1254 ft 88 kts 172°
2026-04-29 19:17 32.20456 34.88437 1164 ft 84 kts 181°
2026-04-29 19:17 32.19954 34.88397 1151 ft 77 kts 187°
2026-04-29 19:18 32.19031 34.88161 1031 ft 79 kts 194°
2026-04-29 19:18 32.18729 34.88061 1002 ft 77 kts 195°
2026-04-29 19:18 32.17699 34.87405 853 ft 76 kts 238°
2026-04-29 19:19 32.17493 34.86869 858 ft 76 kts 251°
2026-04-29 19:19 32.17380 34.86236 960 ft 73 kts 266°
2026-04-29 19:19 32.17448 34.85570 1007 ft 77 kts 280°
2026-04-29 19:19 32.17575 34.85041 976 ft 62 kts 286°
2026-04-29 19:20 32.17702 34.84410 887 ft 89 kts 279°
2026-04-29 19:20 32.17847 34.83681 838 ft 94 kts 285°
2026-04-29 19:20 32.18179 34.83035 793 ft 91 kts 332°
2026-04-29 19:20 32.18774 34.83004 812 ft 84 kts 12°
2026-04-29 19:21 32.19302 34.83269 812 ft 82 kts 47°
2026-04-29 19:21 32.19361 34.83858 833 ft 78 kts 103°
2026-04-29 19:21 32.19217 34.84444 796 ft 83 kts 105°
2026-04-29 19:22 32.18912 34.85531 784 ft 81 kts 118°
2026-04-29 19:22 32.18487 34.85807 783 ft 77 kts 189°
2026-04-29 19:22 32.18084 34.85634 772 ft 70 kts 207°
2026-04-29 19:22 32.17894 34.85155 642 ft 70 kts 261°
2026-04-29 19:23 32.17829 34.84578 478 ft 67 kts 266°
2026-04-29 19:23 32.17845 34.84050 293 ft 64 kts 283°
2026-04-29 19:23 32.17988 34.83534 241 ft 73 kts 282°
2026-04-29 19:23 32.18150 34.82922 331 ft 78 kts 287°
2026-04-29 19:24 32.18569 34.82769 454 ft 77 kts
2026-04-29 19:24 32.19117 34.82866 546 ft 80 kts 24°
2026-04-29 19:24 32.19272 34.83414 632 ft 83 kts 92°
2026-04-29 19:24 32.19228 34.84061 711 ft 82 kts 92°
2026-04-29 19:25 32.19155 34.84693 738 ft 85 kts 96°
2026-04-29 19:25 32.18971 34.85432 780 ft 85 kts 116°
2026-04-29 19:25 32.18713 34.85988 796 ft 88 kts 121°
2026-04-29 19:26 32.17827 34.86419 835 ft 77 kts 201°
2026-04-29 19:26 32.17421 34.86208 771 ft 66 kts 209°
2026-04-29 19:26 32.17222 34.85794 708 ft 63 kts 266°
2026-04-29 19:26 32.17390 34.85289 619 ft 63 kts 301°
2026-04-29 19:27 32.17582 34.84834 517 ft 62 kts 290°
2026-04-29 19:27 32.17729 34.84380 371 ft 61 kts 292°
2026-04-29 19:27 32.17887 34.83906 189 ft 63 kts 290°
2026-04-29 19:27 32.18020 34.83472 110 ft 40 kts 287°
2026-04-29 19:28 32.18056 34.83342 106 ft 6 kts 244°
2026-04-29 19:28 32.18033 34.83331 105 ft 0 kts 191°
2026-04-29 19:28 32.18029 34.83329 105 ft 1 kts 200°